[[{"header":{"parameterUnit":"m.s-1","parameterCategory":1,"la1":30.2992,"la2":30.254,"lo1":-89.0895,"lo2":-89.0443,"dy":0.0025,"dx":0.0025,"nx":19,"ny":19,"refTime":"2026-05-14T21:00:00:Z","depth":0,"parameterNumber":2,"parameterNumberName":"U-component_of_WINDS"},"data":[0,0,0,-4.3342,-4.3343,-4.3372,-4.3372,-4.3435,-4.3435,0,0,0,0,0,0,0,0,0,0,0,-4.3349,-4.335,-4.3342,-4.3343,-4.3372,-4.3372,-4.3434,-4.3435,0,0,0,0,0,0,0,0,0,0,0,-4.3349,-4.335,-4.3351,-4.3343,-4.3372,-4.3372,-4.3434,-4.3403,0,0,0,0,0,0,0,0,0,0,-4.3371,-4.3393,-4.335,-4.3351,-4.3343,-4.3372,-4.3372,-4.3401,-4.3405,-4.3433,0,-4.3462,0,-4.345,-4.3441,-4.3442,0,0,0,-4.3331,-4.339,-4.3383,-4.3351,-4.3344,-4.3372,-4.3355,-4.3403,-4.3408,-4.3438,-4.3462,-4.3464,-4.3451,-4.3442,-4.3442,-4.3642,-4.3644,0,0,-4.3329,-4.3363,-4.338,-4.3387,-4.3384,-4.3354,-4.3356,-4.3405,-4.3434,-4.3462,-4.3465,-4.3452,-4.3442,-4.3443,-4.3641,-4.3643,0,0,0,-4.3333,-4.3362,-4.3354,-4.3385,-4.3388,-4.3356,-4.3358,-4.3432,-4.3426,-4.3465,-4.3453,-4.3443,-4.3444,-4.3639,-4.3642,-4.3747,0,0,0,-4.3331,-4.3364,-4.3354,-4.3374,-4.3388,-4.341,-4.3383,-4.3423,-4.3427,-4.3452,-4.3443,-4.3445,-4.3638,-4.3641,-4.374,-4.379,0,0,0,-4.3342,-4.3365,-4.3375,-4.3376,-4.339,-4.3409,-4.3406,-4.3423,-4.342,-4.3442,-4.3445,-4.3636,-4.364,-4.3734,-4.378,-4.3851,0,0,0,-4.3362,-4.3468,-4.3377,-4.349,-4.339,-4.3475,-4.3405,-4.3466,-4.3498,-4.3443,-4.3638,-4.3641,-4.3732,-4.3774,-4.3845,-4.3915,-4.3948,0,0,-4.3514,-4.3487,-4.3551,-4.3471,-4.358,-4.3467,-4.3592,-4.3589,-4.3561,-4.3617,-4.3621,-4.3742,-4.3779,-4.385,-4.4125,-4.4151,0,0,0,-4.361,-4.3656,-4.3678,-4.371,-4.3711,-4.3715,-4.369,-4.3689,-4.3735,-4.3597,-4.3787,-4.3808,-4.3848,-4.388,-4.3902,-4.3933,-4.3658,-4.3658,-4.3657,-4.387,-4.3829,-4.3932,-4.3895,-4.3927,-4.3901,-4.3922,-4.3917,-4.3866,-4.3912,-4.3927,-4.4099,-4.4138,-4.4154,-4.4187,-4.3963,-4.3963,-4.3964,-4.3964,-4.4086,-4.4144,-4.4076,-4.415,-4.4107,-4.417,-4.415,-4.4112,-4.4163,-4.4084,-4.4117,-4.4031,-4.4184,-4.4211,-4.3972,-4.397,-4.3969,-4.3969,-4.3968,-4.4249,-4.4269,-4.4268,-4.431,-4.4347,-4.4307,-4.436,-4.4319,-4.4281,-4.4314,-4.4325,-4.4323,-4.4314,-4.4323,-4.4324,-4.4324,-4.4325,-4.4325,-4.4325,-4.4417,-4.4412,-4.4461,-4.4474,-4.4489,-4.4504,-4.4481,-4.4495,-4.45,-4.4466,-4.4465,-4.4409,-4.4208,-4.4157,-4.4334,-4.4333,-4.4332,-4.4331,-4.433,-4.4645,-4.4588,-4.4665,-4.468,-4.4691,-4.4731,-4.468,-4.4712,-4.4718,-4.4746,-4.4684,-4.4543,-4.4512,-4.4494,-4.4451,-4.4694,-4.4694,-4.4694,-4.4694,-4.4781,-4.4763,-4.4832,-4.486,-4.4883,-4.4845,-4.4933,-4.4917,-4.4891,-4.4893,-4.4852,-4.4793,-4.4777,-4.4755,-4.4732,-4.4691,-4.4989,-4.499,-4.499,-4.4918,-4.4901,-4.4982,-4.4958,-4.4964,-4.497,-4.5052,-4.5086,-4.5046,-4.5001,-4.4892,-4.488,-4.4784,-4.4755,-4.4704,-4.4668,-4.4592,0,0]},{"header":{"parameterUnit":"m.s-1","parameterCategory":1,"la1":30.2992,"la2":30.254,"lo1":-89.0895,"lo2":-89.0443,"dy":0.0025,"dx":0.0025,"nx":19,"ny":19,"refTime":"2026-05-14T21:00:00:Z","depth":0,"parameterNumber":3,"parameterNumberName":"V-component_of_WINDS"},"data":[0,0,0,2.1676,2.1677,2.1693,2.1693,2.1721,2.1722,0,0,0,0,0,0,0,0,0,0,0,2.1675,2.1676,2.1676,2.1677,2.1693,2.1693,2.1721,2.1722,0,0,0,0,0,0,0,0,0,0,0,2.1675,2.1676,2.1676,2.1677,2.1693,2.1693,2.1721,2.1706,0,0,0,0,0,0,0,0,0,0,2.1689,2.1692,2.1676,2.1676,2.1677,2.1693,2.1693,2.1706,2.1707,2.1717,0,2.1726,0,2.1724,2.1724,2.1724,0,0,0,2.1674,2.1691,2.1692,2.1676,2.1677,2.1693,2.1685,2.1707,2.1709,2.1719,2.1726,2.1727,2.1725,2.1724,2.1724,2.1787,2.1787,0,0,2.1673,2.1681,2.169,2.1693,2.169,2.1685,2.1686,2.1708,2.1716,2.1726,2.1728,2.1725,2.1725,2.1725,2.1787,2.1787,0,0,0,2.1672,2.168,2.168,2.1692,2.1694,2.1685,2.1686,2.1715,2.1714,2.1728,2.1726,2.1725,2.1725,2.1786,2.1787,2.1814,0,0,0,2.1672,2.168,2.168,2.1685,2.1694,2.1705,2.1693,2.1713,2.1715,2.1725,2.1725,2.1725,2.1786,2.1786,2.1813,2.1827,0,0,0,2.1673,2.168,2.1683,2.1685,2.1692,2.1704,2.1705,2.1713,2.1714,2.1724,2.1726,2.1785,2.1786,2.1811,2.1824,2.1845,0,0,0,2.1677,2.1708,2.1684,2.1718,2.1692,2.1721,2.1705,2.1726,2.1738,2.1725,2.1786,2.1787,2.1811,2.1822,2.1843,2.1864,2.1873,0,0,2.1721,2.1714,2.1733,2.1712,2.1747,2.1718,2.1757,2.1762,2.1756,2.1777,2.1779,2.1813,2.1824,2.1845,2.1923,2.193,0,0,0,2.175,2.1764,2.1772,2.1783,2.1787,2.1791,2.1789,2.179,2.1808,2.1768,2.1826,2.1832,2.1844,2.1854,2.186,2.187,2.1791,2.1791,2.1791,2.1824,2.1814,2.1846,2.1838,2.185,2.1846,2.1855,2.1857,2.1844,2.1858,2.1864,2.1913,2.1924,2.1929,2.1939,2.1875,2.1875,2.1875,2.1875,2.1887,2.1906,2.1888,2.1912,2.1902,2.1923,2.1921,2.1911,2.1929,2.1908,2.1918,2.1895,2.1937,2.1946,2.1877,2.1876,2.1876,2.1876,2.1876,2.1934,2.1942,2.1942,2.1958,2.1971,2.1962,2.198,2.197,2.1961,2.1971,2.1977,2.1976,2.1975,2.1975,2.1975,2.1975,2.1975,2.1975,2.1975,2.1983,2.1983,2.1999,2.2005,2.2011,2.2017,2.2014,2.202,2.2024,2.2015,2.2015,2.2002,2.1943,2.1929,2.1978,2.1977,2.1977,2.1977,2.1977,2.2052,2.2034,2.2059,2.2065,2.2071,2.2084,2.2071,2.2084,2.2087,2.2096,2.208,2.2038,2.2031,2.2026,2.2014,2.2082,2.2082,2.2082,2.2082,2.2092,2.2086,2.2109,2.2119,2.2128,2.2118,2.2146,2.2144,2.2139,2.214,2.2129,2.2112,2.2108,2.2103,2.2096,2.2085,2.2169,2.2169,2.217,2.2133,2.2128,2.2154,2.2148,2.2152,2.2156,2.2182,2.2194,2.2185,2.2173,2.2141,2.2138,2.211,2.2102,2.209,2.2079,2.2058,0,0]}]]